Voltar ao catálogo

FENGYUN 1C DEB

LostPO
NORAD 36139·DEBRIS·🇨🇳 China

Lançado May 10, 1999 de Taiyuan Satellite Launch Center

Loading…

Próximas Passagens (próximas 24 horas)

TLE

ObsoletoSource: Space-Track

Época: May 27, 2023, 03:57 UTC

1 36139U 99025DRL 23147.16509517  .00006654  00000-0  32024-2 0  9992
2 36139  97.9448 126.1065 0141720  94.9001 266.8371 14.13895355441268

Acompanhe FENGYUN 1C DEB em tempo real com AllMySat

Download on the App Store